Location: Sihaung
(22.8641°N, 94.0549°E)
Time: 10:41:20
(UTC+00:00)

Cosmos 2219 - Pass Details

Date: 03 March 2021
Orbit: 835 x 858 km, 71.1° (Epoch: 16 April)

Event Time Altitude Azimuth Distance (km) Brightness Sun altitude
Rises 23:26:34 0° 188° (S) 3,402 6.3 -9.2°
Reaches altitude 10° 23:29:02 10° 185° (S) 2,466 5.6 -8.6°
Maximum altitude 23:34:37 62° 106° (ESE) 949 3.9 -7.3°
Drops below altitude 10° 23:40:10 10° 26° (NNE) 2,458 5.9 -6.0°
Sets 23:42:37 0° 23° (NNE) 3,391 6.6 -5.5°
